TimeEDT,TemperatureF,Dew PointF,Humidity,Sea Level PressureIn,VisibilityMPH,Wind Direction,Wind SpeedMPH,Gust SpeedMPH,PrecipitationIn,Events,Conditions,WindDirDegrees,DateUTC
12:53 AM,54.0,43.0,66,30.21,10.0,NE,6.9,-,N/A,,Clear,50,2013-03-16 04:53:00
1:53 AM,53.1,43.0,69,30.20,10.0,ENE,4.6,-,N/A,,Clear,60,2013-03-16 05:53:00
2:53 AM,53.1,43.0,69,30.18,10.0,Calm,Calm,-,N/A,,Clear,0,2013-03-16 06:53:00
3:53 AM,52.0,45.0,77,30.17,10.0,Calm,Calm,-,N/A,,Clear,0,2013-03-16 07:53:00
4:53 AM,51.1,45.0,80,30.16,10.0,Calm,Calm,-,N/A,,Clear,0,2013-03-16 08:53:00
5:53 AM,50.0,46.0,86,30.16,10.0,Calm,Calm,-,N/A,,Clear,0,2013-03-16 09:53:00
6:53 AM,51.1,48.0,89,30.17,10.0,SE,3.5,-,N/A,,Clear,140,2013-03-16 10:53:00
7:53 AM,51.1,48.0,89,30.19,7.0,Calm,Calm,-,N/A,,Clear,0,2013-03-16 11:53:00
8:53 AM,55.0,50.0,83,30.20,9.0,SE,3.5,-,N/A,,Clear,140,2013-03-16 12:53:00
9:53 AM,64.0,51.1,63,30.20,10.0,SSE,6.9,-,N/A,,Clear,150,2013-03-16 13:53:00
10:53 AM,70.0,48.0,46,30.20,10.0,SSE,9.2,-,N/A,,Clear,150,2013-03-16 14:53:00
11:53 AM,71.1,43.0,36,30.20,10.0,ESE,5.8,-,N/A,,Clear,120,2013-03-16 15:53:00
12:53 PM,73.9,42.1,32,30.17,10.0,ESE,8.1,-,N/A,,Clear,120,2013-03-16 16:53:00
1:53 PM,75.0,46.0,36,30.15,10.0,West,8.1,-,N/A,,Clear,260,2013-03-16 17:53:00
2:53 PM,75.0,46.9,37,30.13,10.0,WSW,9.2,19.6,N/A,,Clear,250,2013-03-16 18:53:00
3:53 PM,75.0,46.9,37,30.11,10.0,West,11.5,-,N/A,,Clear,260,2013-03-16 19:53:00
4:53 PM,73.9,39.0,28,30.10,10.0,SW,13.8,19.6,N/A,,Clear,230,2013-03-16 20:53:00
5:53 PM,72.0,41.0,33,30.10,10.0,SW,10.4,-,N/A,,Clear,230,2013-03-16 21:53:00
6:53 PM,70.0,41.0,35,30.10,10.0,WSW,9.2,-,N/A,,Clear,240,2013-03-16 22:53:00
7:53 PM,66.0,46.9,50,30.11,10.0,WSW,5.8,-,N/A,,Clear,250,2013-03-16 23:53:00
8:53 PM,64.9,48.9,56,30.12,10.0,Calm,Calm,-,N/A,,Clear,0,2013-03-17 00:53:00
9:53 PM,61.0,48.9,64,30.13,10.0,Calm,Calm,-,N/A,,Clear,0,2013-03-17 01:53:00
10:53 PM,59.0,48.9,69,30.15,10.0,Calm,Calm,-,N/A,,Clear,0,2013-03-17 02:53:00
11:53 PM,57.9,51.1,78,30.15,10.0,Calm,Calm,-,N/A,,Clear,0,2013-03-17 03:53:00